EW9436 Weather Reports


Display with metric or nautical units.
time (UTC)temp
F
wind
direction
speed
MPH
gust
MPH
rain 1hr
in
rain 24hr
in
rain mn
in
humidity
%
barometer
mb
20200405102908 38 90 1.0 0.0 0.00 0.00 0.00 100 0.9
20200405102005 38 90 1.0 0.0 0.00 0.00 0.00 100 0.9
20200405101006 37 90 1.0 0.0 0.00 0.00 0.00 100 0.9
20200405100103 37 90 0.0 0.0 0.00 0.00 0.00 100 0.9
20200405095104 37 22 0.0 0.0 0.00 0.00 0.00 100 0.9
20200405094105 37 22 0.0 0.0 0.00 0.00 0.00 100 0.9
20200405093105 38 22 0.0 0.0 0.00 0.00 0.00 100 0.9
20200405092106 38 22 0.0 0.0 0.00 0.00 0.00 100 0.9
20200405091204 38 22 0.0 0.0 0.00 0.00 0.00 100 0.9
20200405090205 38 22 0.0 0.0 0.00 0.00 0.00 100 0.9
20200405085205 37 22 1.0 0.0 0.00 0.00 0.00 100 0.9
20200405084205 36 22 1.0 0.0 0.00 0.01 0.00 100 0.9
20200405083305 36 90 0.0 0.0 0.00 0.01 0.00 100 0.9
20200405082306 36 90 0.0 0.0 0.00 0.01 0.00 100 0.9
20200405081406 36 90 0.0 0.0 0.00 0.01 0.00 100 0.9
20200405080505 36 90 0.0 0.0 0.00 0.01 0.00 100 0.9
20200405075505 35 90 1.0 0.0 0.00 0.01 0.00 100 0.9
20200405074505 35 90 0.0 0.0 0.00 0.01 0.00 100 0.9
20200405073507 35 90 0.0 0.0 0.00 0.01 0.00 100 0.9
20200405072604 35 90 0.0 0.0 0.00 0.02 0.00 100 0.9
20200405071605 35 90 0.0 0.0 0.00 0.02 0.00 100 0.9
20200405070607 34 90 0.0 0.0 0.00 0.03 0.00 100 0.9
20200405065605 34 90 0.0 0.0 0.00 0.03 0.00 100 0.9
20200405064707 34 90 1.0 0.0 0.00 0.04 0.00 100 0.9
20200405063805 34 89 1.0 0.0 0.00 0.05 0.00 100 0.9
20200405062904 35 22 0.0 0.0 0.00 0.06 0.00 100 0.9
20200405062003 34 22 0.0 0.0 0.00 0.07 0.00 100 0.9
20200405061005 34 22 0.0 0.0 0.00 0.10 0.00 100 0.9
20200405060005 34 22 0.0 0.0 0.00 0.11 0.00 100 0.9
20200405055104 34 22 0.0 0.0 0.00 0.12 0.00 100 0.9
20200405054203 35 22 0.0 0.0 0.00 0.13 0.00 100 0.9
20200405053204 36 22 0.0 0.0 0.00 0.14 0.00 100 0.9
20200405052303 36 8 1.0 0.0 0.00 0.15 0.00 100 0.9
20200405051304 35 337 2.0 0.0 0.00 0.15 0.00 100 0.9
20200405050303 34 360 2.0 0.0 0.00 0.16 0.00 100 0.9
20200405045305 33 112 0.0 0.0 0.00 0.16 0.00 100 0.9
20200405044404 33 112 0.0 0.0 0.00 0.17 0.00 99 0.9
20200405043405 33 112 0.0 0.0 0.00 0.17 0.00 99 0.9
20200405042405 33 112 0.0 0.0 0.00 0.18 0.00 99 0.9
20200405041505 33 112 1.0 0.0 0.00 0.18 0.00 99 0.9
20200405040504 32 112 0.0 0.0 0.00 0.19 0.00 99 0.9
20200405035514 32 112 0.0 0.0 0.00 0.19 0.19 98 0.9
20200405034514 32 112 0.0 0.0 0.00 0.19 0.19 98 0.9
20200405033615 33 112 2.0 0.0 0.00 0.20 0.19 98 0.9
20200405032713 33 112 2.0 0.0 0.00 0.20 0.19 98 0.9
20200405031716 33 112 0.0 0.0 0.00 0.21 0.19 98 0.9
20200405030813 33 112 0.0 0.0 0.00 0.21 0.19 98 0.9
20200405025816 34 112 1.0 0.0 0.00 0.22 0.19 98 0.9
20200405024913 35 112 0.0 0.0 0.00 0.22 0.19 98 0.9
20200405023913 35 112 0.0 0.0 0.00 0.22 0.19 97 0.9
20200405023014 35 112 0.0 0.0 0.00 0.22 0.19 97 0.9
20200405022014 34 112 0.0 0.0 0.00 0.22 0.19 97 0.9
20200405021113 34 112 1.0 0.0 0.00 0.23 0.19 96 0.9
20200405020214 34 112 1.0 0.0 0.00 0.23 0.19 96 0.9
20200405015214 35 112 2.0 0.0 0.00 0.23 0.19 96 0.9
20200405014213 35 112 1.0 0.0 0.00 0.24 0.19 96 0.9
20200405013213 36 22 0.0 0.0 0.00 0.25 0.19 96 0.9
20200405012314 37 22 0.0 0.0 0.00 0.26 0.19 95 0.9
20200405011313 37 22 2.0 0.0 0.00 0.28 0.19 95 0.9
20200405010412 37 22 1.0 0.0 0.00 0.28 0.19 95 0.9
20200405005415 38 45 0.0 0.0 0.00 0.28 0.19 94 0.9
20200405004415 38 22 2.0 0.0 0.00 0.32 0.19 93 0.9
20200405003516 38 22 1.0 0.0 0.00 0.34 0.19 93 0.9
20200405002614 38 343 2.0 0.0 0.00 0.35 0.19 93 0.9
20200405001713 39 22 4.0 0.0 0.00 0.35 0.19 93 0.9
20200405000714 39 28 3.0 0.0 0.00 0.36 0.19 93 0.9
20200404235714 39 22 4.0 0.0 0.00 0.37 0.19 92 0.9
20200404234815 39 22 2.0 0.0 0.00 0.38 0.19 91 0.9
20200404233814 39 30 3.0 0.0 0.00 0.39 0.19 90 0.9
20200404232914 39 24 3.0 0.0 0.00 0.40 0.19 90 0.9
20200404232013 40 40 4.0 0.0 0.00 0.41 0.19 89 0.9
20200404231015 40 43 4.0 0.0 0.00 0.41 0.19 88 0.9
20200404230113 41 39 5.0 0.0 0.00 0.42 0.19 87 0.9
20200404225113 42 26 6.0 0.0 0.00 0.44 0.19 87 0.9
20200404224114 42 23 8.0 0.0 0.00 0.45 0.19 85 0.9
20200404223213 42 26 3.0 0.0 0.00 0.46 0.19 85 0.9
20200404222214 42 25 6.0 0.0 0.00 0.48 0.19 85 0.9
20200404221214 42 37 7.0 0.0 0.00 0.49 0.19 85 0.9
20200404220313 42 83 2.0 0.0 0.00 0.50 0.19 83 0.9
20200404215314 42 64 7.0 0.0 0.00 0.52 0.19 84 0.9
20200404214413 42 38 6.0 0.0 0.00 0.52 0.19 84 0.9
20200404213414 43 59 5.0 0.0 0.00 0.53 0.19 84 0.9
20200404212414 42 22 9.0 0.0 0.00 0.53 0.19 83 0.9
20200404211414 43 29 8.0 0.0 0.00 0.53 0.19 83 0.9
20200404210511 43 27 9.0 0.0 0.00 0.53 0.19 83 0.9
20200404205514 43 24 14.0 0.0 0.00 0.53 0.19 84 0.9
20200404204611 43 23 12.0 0.0 0.00 0.54 0.19 85 0.9
20200404203613 42 21 15.0 0.0 0.00 0.54 0.19 84 0.9
20200404202615 42 39 8.0 0.0 0.00 0.54 0.19 84 0.9
20200404201714 42 20 15.0 0.0 0.00 0.55 0.19 85 0.9
20200404200715 42 23 14.0 0.0 0.00 0.55 0.19 85 0.9
20200404195815 42 33 10.0 0.0 0.00 0.55 0.19 86 0.9
20200404194913 42 25 14.0 0.0 0.00 0.56 0.19 86 0.9
20200404194012 42 22 15.0 0.0 0.00 0.56 0.19 86 0.9
20200404193015 42 23 12.0 0.0 0.00 0.56 0.19 87 0.9
20200404192114 42 24 10.0 0.0 0.00 0.56 0.19 87 0.9
20200404191128 42 38 7.0 0.0 0.00 0.56 0.19 87 0.9
20200404190211 42 24 12.0 0.0 0.00 0.56 0.19 86 0.9
20200404185214 42 27 16.0 0.0 0.00 0.56 0.19 86 0.9
20200404184312 43 18 13.0 0.0 0.00 0.56 0.19 87 0.9
20200404183313 42 41 8.0 0.0 0.00 0.60 0.19 88 0.9
20200404182314 42 24 18.0 0.0 0.00 0.60 0.19 89 0.9
20200404181315 42 24 13.0 0.0 0.00 0.60 0.19 88 0.9
20200404180411 42 32 15.0 0.0 0.00 0.60 0.19 89 0.9
20200404175413 42 23 16.0 0.0 0.00 0.61 0.19 89 0.9
20200404174514 41 23 13.0 0.0 0.00 0.62 0.19 90 0.9
20200404173514 41 24 14.0 0.0 0.00 0.62 0.19 90 0.9
20200404172614 41 21 14.0 0.0 0.00 0.62 0.19 91 0.9
20200404171614 41 24 15.0 0.0 0.00 0.62 0.19 92 0.9
20200404170614 41 24 13.0 0.0 0.00 0.62 0.19 92 0.9
20200404165614 41 21 16.0 0.0 0.00 0.62 0.19 93 0.9
20200404164615 41 33 10.0 0.0 0.00 0.62 0.19 94 0.9
20200404163615 41 24 14.0 0.0 0.00 0.62 0.19 94 0.9
20200404162613 41 19 13.0 0.0 0.00 0.62 0.19 93 0.9
20200404161613 41 23 18.0 0.0 0.00 0.62 0.19 93 0.9
20200404160712 41 25 15.0 0.0 0.00 0.62 0.19 94 0.9
20200404155713 40 32 9.0 0.0 0.00 0.63 0.19 95 0.9
20200404154813 40 20 18.0 0.0 0.00 0.63 0.19 96 0.9
20200404153815 40 27 6.0 0.0 0.00 0.63 0.19 96 0.9
20200404152813 40 26 15.0 0.0 0.00 0.64 0.19 97 0.9
20200404151814 40 24 12.0 0.0 0.00 0.65 0.19 97 0.9
20200404150912 40 27 8.0 0.0 0.00 0.65 0.19 97 0.9
20200404145914 40 23 11.0 0.0 0.00 0.66 0.19 97 0.9
20200404144912 40 24 12.0 0.0 0.00 0.69 0.19 96 0.9
20200404143914 40 20 15.0 0.0 0.00 0.72 0.19 96 0.9
20200404142915 40 31 6.0 0.0 0.00 0.74 0.19 97 0.9
20200404141912 40 23 13.0 0.0 0.00 0.75 0.19 97 0.9
20200404140915 40 26 16.0 0.0 0.00 0.76 0.19 97 0.9
20200404135914 40 24 13.0 0.0 0.00 0.76 0.19 97 0.9
20200404134913 40 18 16.0 0.0 0.00 0.77 0.19 97 0.9
20200404134013 40 23 14.0 0.0 0.00 0.78 0.19 97 0.9
20200404133013 40 29 11.0 0.0 0.00 0.79 0.19 98 0.9
20200404132033 40 34 10.0 0.0 0.00 0.80 0.19 98 0.9
20200404131132 40 28 12.0 0.0 0.00 0.81 0.19 98 0.9
20200404130136 40 29 10.0 0.0 0.00 0.83 0.19 98 0.9
20200404125234 40 21 13.0 0.0 0.00 0.85 0.19 98 0.9
20200404124332 40 21 17.0 0.0 0.00 0.86 0.19 98 0.9
20200404123333 40 35 10.0 0.0 0.00 0.88 0.19 98 0.9
20200404122433 40 39 11.0 0.0 0.00 0.90 0.19 99 0.9
20200404121532 40 33 11.0 0.0 0.00 0.92 0.19 99 0.9
20200404120532 40 26 17.0 0.0 0.00 0.93 0.19 99 0.9
20200404115533 40 24 16.0 0.0 0.00 0.96 0.19 99 0.9
20200404114632 40 26 13.0 0.0 0.00 1.00 0.19 99 0.9
20200404113632 41 22 16.0 0.0 0.00 1.02 0.19 99 0.9
20200404112634 41 22 18.0 0.0 0.00 1.04 0.19 98 0.9
20200404111632 41 27 12.0 0.0 0.00 1.07 0.19 98 0.9
20200404110732 41 23 15.0 0.0 0.00 1.08 0.19 98 0.9
20200404105735 41 28 12.0 0.0 0.00 1.09 0.19 98 0.9
20200404104734 41 26 17.0 0.0 0.00 1.12 0.19 98 0.9
20200404103833 41 30 13.0 0.0 0.00 1.12 0.19 98 0.9